Aérodrome :
LOGIN :

S'inscrire | Disclaimer

   EN    FR    IT 

 










Légende :    VFR   VFR Marginal   IFR   IFR Intensif   IFR Très Intensif
Visi : 
Plafond : 
>= 8 km
>= 3000ft
5 à 8 km
1000 à 3000 ft
1500m à 5 km
500 à 1000 ft
800 à 1500m
200 à 500 ft
< 800m
< 200 ft
Symboles :   Orages  Brouillard  Fortes neiges  Fortes précipitations  Vent > 20 kt
SIGMETs :   Divers  Orages  Givrage  Turbulence  Onde Orograph.  Cendres Volcan.







- Altitude de l'aérodrome : 284 ft


EGUW - RAF Wattisham

DERNIER METAR :
  • 270750Z 19005KT 9000 -RA FEW010 BKN040 OVC080 08/07 Q1010 BLU TEMPO 7000 RA WHT

METARs EXPIRÉS :
  • 270650Z 15004KT 9999 -RA SCT040 OVC080 08/06 Q1010 BLU TEMPO 7000 RA WHT
  • 270550Z 18003KT 9999 FEW040 OVC100 07/05 Q1010 BLU

TAF TAF EGUW
Valide du 27 à 06h jusqu'au 27 à 15h UTC


270607Z 2706/2715 16005KT 9999 BKN040
PROB30
TEMPO 2708/2712 7000 RA SCT018
PROB30
TEMPO 2714/2715 14015G25KT 5000 RA SCT025TCU
Pas de NOTAMs connus pour ce terrain.



MET'MAP, la Météo Aéronautique d'un coup d'oeil ! - Copyright ORBIFLY Décembre 2007 - Disclaimer

ORBIFLY MET'MAP TEAM :

Programmation & Développement : Alexandra Zaïnal
Conception & Développement : Baudouin d'Aumeries
Co-Programmation & Développement : Marc-Olivier Méhu
Soutien technique & logistique : Manuel Goepfert

Contact : metmap@orbifly.com




SOURCES & CREDITS :

   NOAA